Check out our new BloomSky Weather System.

Active alerts


No alerts


Thunder radar  blitzortung!


Rain radar more information rain snow radar


Visit our other weather sites:

Template documentation
and downloads

And another site



Weather Underground History page Text

Daily Summary for March 22, 2017 Units:  Metric    English   Both
« Previous Day
Next Day »
Daily Weekly Monthly Yearly Custom
  High: Low: Average:
Temperature: -17.8 °C 16.9 °C 23.2 °C
Dew Point: -17.8 °C 15.5 °C 18 °C
Humidity: Humidity % 44 % 75 %
Wind Speed: 0 km/h 0 km/h 4.5 km/h
Wind Gust: 0 km/h - -
Wind:- - South
Pressure: 0 hPa 1017.5 hPa -
Precipitation: 0 mm    
Historical Graphs
 
 
Tabular Data for March 22, 2017
Time Temperature Dew Point Pressure Wind Wind Speed Wind Gust Humidity Rainfall Rate (Hourly)
-17.8 °C -17.8 °C 0 hPa Calm     Humidity % 0 mm
00:02 20.9 °C 18.8 °C 1018.5 hPa SSE 1.6 km/h 9.7 km/h 88 % 0 mm
00:07 20.8 °C 18.7 °C 1018.5 hPa SE 3.2 km/h 8 km/h 88 % 0 mm
00:12 20.7 °C 18.8 °C 1018.2 hPa SSE 3.2 km/h 9.7 km/h 89 % 0 mm
00:17 20.7 °C 18.8 °C 1018.2 hPa SSE 4.8 km/h 9.7 km/h 89 % 0 mm
00:22 20.7 °C 18.8 °C 1018.2 hPa SE 3.2 km/h 9.7 km/h 89 % 0 mm
00:27 20.6 °C 18.9 °C 1018.2 hPa SSE 4.8 km/h 9.7 km/h 90 % 0 mm
00:32 20.6 °C 18.9 °C 1018.2 hPa SSE 3.2 km/h 9.7 km/h 90 % 0 mm
00:37 20.6 °C 18.9 °C 1018.2 hPa SSE 3.2 km/h 9.7 km/h 90 % 0 mm
00:42 20.5 °C 19 °C 1018.2 hPa ESE 3.2 km/h 9.7 km/h 91 % 0 mm
00:47 20.4 °C 18.9 °C 1018.2 hPa South 8 km/h 9.7 km/h 91 % 0 mm
00:52 20.5 °C 19 °C 1018.2 hPa South 4.8 km/h 9.7 km/h 91 % 0 mm
00:57 20.4 °C 18.9 °C 1018.2 hPa SSE 4.8 km/h 9.7 km/h 91 % 0 mm
01:02 20.4 °C 19.1 °C 1018.2 hPa South 4.8 km/h 11.3 km/h 92 % 0 mm
01:07 20.4 °C 19.1 °C 1018.2 hPa South 1.6 km/h 11.3 km/h 92 % 0 mm
01:12 20.3 °C 19 °C 1018.2 hPa SE 4.8 km/h 11.3 km/h 92 % 0 mm
01:17 20.3 °C 19 °C 1018.2 hPa South 1.6 km/h 11.3 km/h 92 % 0 mm
01:22 20.3 °C 19.1 °C 1018.2 hPa SSW 3.2 km/h 8 km/h 93 % 0 mm
01:27 20.2 °C 19 °C 1018.2 hPa SSE 1.6 km/h 8 km/h 93 % 0 mm
01:32 20.2 °C 19 °C 1018.2 hPa SSE 3.2 km/h 8 km/h 93 % 0 mm
01:37 20.2 °C 19 °C 1018.2 hPa SSE 3.2 km/h 8 km/h 93 % 0 mm
01:42 20.2 °C 19 °C 1018.2 hPa South 4.8 km/h 9.7 km/h 93 % 0 mm
01:47 20.1 °C 18.9 °C 1018.2 hPa SSE 6.4 km/h 9.7 km/h 93 % 0 mm
01:52 20.1 °C 19.1 °C 1018.2 hPa SE 3.2 km/h 9.7 km/h 94 % 0 mm
01:57 20.1 °C 19.1 °C 1018.2 hPa SSE 8 km/h 9.7 km/h 94 % 0 mm
02:02 20.1 °C 19.1 °C 1018.2 hPa SW 3.2 km/h 9.7 km/h 94 % 0 mm
02:07 20 °C 19 °C 1018.2 hPa South 4.8 km/h 9.7 km/h 94 % 0 mm
02:12 19.9 °C 18.9 °C 1018.2 hPa South 3.2 km/h 8 km/h 94 % 0 mm
02:17 19.9 °C 18.9 °C 1018.2 hPa SE 1.6 km/h 6.4 km/h 94 % 0 mm
02:22 19.8 °C 18.8 °C 1018.2 hPa SSE 1.6 km/h 6.4 km/h 94 % 0 mm
02:27 19.8 °C 18.8 °C 1017.8 hPa SSE 6.4 km/h 6.4 km/h 94 % 0 mm
02:32 19.8 °C 19 °C 1017.8 hPa ESE 1.6 km/h 6.4 km/h 95 % 0 mm
02:37 19.7 °C 18.7 °C 1017.8 hPa South 1.6 km/h 6.4 km/h 94 % 0 mm
02:42 19.7 °C 18.9 °C 1017.8 hPa SSW 3.2 km/h 8 km/h 95 % 0 mm
02:47 19.7 °C 18.9 °C 1017.8 hPa ESE 3.2 km/h 8 km/h 95 % 0 mm
02:52 19.7 °C 18.9 °C 1017.8 hPa SE 3.2 km/h 8 km/h 95 % 0 mm
02:57 19.7 °C 18.9 °C 1017.8 hPa SSE 1.6 km/h 8 km/h 95 % 0 mm
03:02 19.6 °C 18.8 °C 1017.8 hPa South 3.2 km/h 8 km/h 95 % 0 mm
03:07 19.6 °C 18.8 °C 1017.8 hPa SSE 4.8 km/h 8 km/h 95 % 0 mm
03:12 19.6 °C 18.8 °C 1017.8 hPa SE 1.6 km/h 8 km/h 95 % 0 mm
03:17 19.6 °C 18.8 °C 1017.8 hPa SSE 1.6 km/h 8 km/h 95 % 0 mm
03:22 19.5 °C 18.7 °C 1017.8 hPa South 6.4 km/h 8 km/h 95 % 0 mm
03:27 19.4 °C 18.6 °C 1017.8 hPa SSW 3.2 km/h 6.4 km/h 95 % 0 mm
03:32 19.4 °C 18.6 °C 1017.8 hPa South 1.6 km/h 6.4 km/h 95 % 0 mm
03:37 19.4 °C 18.7 °C 1017.5 hPa Calm   6.4 km/h 96 % 0 mm
03:42 19.3 °C 18.6 °C 1017.8 hPa SSW 1.6 km/h 4.8 km/h 96 % 0 mm
03:47 19.3 °C 18.6 °C 1017.5 hPa Calm   4.8 km/h 96 % 0 mm
03:52 19.3 °C 18.6 °C 1017.5 hPa SSE 3.2 km/h 4.8 km/h 96 % 0 mm
03:57 19.3 °C 18.6 °C 1017.5 hPa SSE 1.6 km/h 6.4 km/h 96 % 0 mm
04:02 19.2 °C 18.5 °C 1017.5 hPa SSE 1.6 km/h 6.4 km/h 96 % 0 mm
04:07 19.2 °C 18.5 °C 1017.5 hPa South 3.2 km/h 6.4 km/h 96 % 0 mm
04:12 19.1 °C 18.4 °C 1017.5 hPa SSW 1.6 km/h 4.8 km/h 96 % 0 mm
04:17 19.1 °C 18.4 °C 1017.5 hPa SSW 1.6 km/h 4.8 km/h 96 % 0 mm
04:22 19 °C 18.3 °C 1017.5 hPa SSW 1.6 km/h 4.8 km/h 96 % 0 mm
04:27 19 °C 18.3 °C 1017.5 hPa SW 1.6 km/h 3.2 km/h 96 % 0 mm
04:32 18.9 °C 18.2 °C 1017.5 hPa South 1.6 km/h 3.2 km/h 96 % 0 mm
04:38 18.9 °C 18.4 °C 1017.8 hPa Calm   3.2 km/h 97 % 0 mm
04:43 18.8 °C 18.1 °C 1017.8 hPa Calm   3.2 km/h 96 % 0 mm
04:47 18.6 °C 17.9 °C 1017.8 hPa Calm   3.2 km/h 96 % 0 mm
04:53 18.4 °C 17.9 °C 1017.8 hPa Calm   3.2 km/h 97 % 0 mm
04:58 18.4 °C 17.9 °C 1017.8 hPa Calm     97 % 0 mm
05:03 18.3 °C 17.7 °C 1017.8 hPa Calm     96 % 0 mm
05:08 18 °C 17.4 °C 1017.8 hPa Calm     96 % 0 mm
05:13 17.9 °C 17.4 °C 1017.5 hPa Calm     97 % 0 mm
05:18 17.8 °C 17.3 °C 1017.8 hPa Calm     97 % 0 mm
05:23 17.9 °C 17.4 °C 1017.8 hPa Calm     97 % 0 mm
05:28 17.8 °C 17.3 °C 1017.8 hPa Calm     97 % 0 mm
05:33 17.7 °C 17.2 °C 1017.8 hPa Calm     97 % 0 mm
05:38 17.5 °C 17 °C 1017.8 hPa Calm     97 % 0 mm
05:43 17.4 °C 16.9 °C 1017.5 hPa Calm     97 % 0 mm
05:48 17.4 °C 16.9 °C 1017.8 hPa Calm     97 % 0 mm
05:53 17.3 °C 16.8 °C 1017.8 hPa Calm     97 % 0 mm
05:58 17.2 °C 16.7 °C 1017.5 hPa Calm     97 % 0 mm
06:03 17.1 °C 16.6 °C 1017.5 hPa Calm     97 % 0 mm
06:08 17.1 °C 16.6 °C 1017.5 hPa Calm     97 % 0 mm
06:13 17 °C 16.5 °C 1017.5 hPa Calm     97 % 0 mm
06:18 16.9 °C 16.4 °C 1017.5 hPa Calm     97 % 0 mm
06:23 16.9 °C 16.4 °C 1017.5 hPa Calm     97 % 0 mm
06:28 16.9 °C 16.6 °C 1017.5 hPa Calm     98 % 0 mm
06:33 17.1 °C 16.8 °C 1017.5 hPa Calm     98 % 0 mm
06:38 17.1 °C 16.8 °C 1017.5 hPa Calm     98 % 0 mm
06:43 17.1 °C 16.8 °C 1017.5 hPa Calm     98 % 0 mm
06:48 17 °C 16.7 °C 1017.8 hPa Calm     98 % 0 mm
06:53 17.1 °C 16.8 °C 1017.8 hPa Calm     98 % 0 mm
06:58 16.9 °C 16.6 °C 1017.8 hPa Calm     98 % 0 mm
07:03 16.9 °C 16.6 °C 1018.2 hPa Calm     98 % 0 mm
07:08 16.9 °C 16.6 °C 1018.2 hPa Calm     98 % 0 mm
07:13 16.9 °C 16.6 °C 1018.2 hPa Calm     98 % 0 mm
07:18 16.9 °C 16.6 °C 1018.5 hPa Calm   1.6 km/h 98 % 0 mm
07:23 17 °C 16.7 °C 1018.5 hPa Calm   1.6 km/h 98 % 0 mm
07:28 17.2 °C 16.9 °C 1018.8 hPa Calm   1.6 km/h 98 % 0 mm
07:33 17.3 °C 17 °C 1018.8 hPa Calm   1.6 km/h 98 % 0 mm
07:38 17.4 °C 17.1 °C 1018.8 hPa Calm   1.6 km/h 98 % 0 mm
07:43 17.5 °C 17.2 °C 1018.8 hPa Calm   1.6 km/h 98 % 0 mm
07:48 17.6 °C 17.3 °C 1018.8 hPa ESE 1.6 km/h 1.6 km/h 98 % 0 mm
07:53 17.7 °C 17.4 °C 1018.8 hPa Calm   1.6 km/h 98 % 0 mm
07:58 17.7 °C 17.4 °C 1018.8 hPa Calm   1.6 km/h 98 % 0 mm
08:03 17.8 °C 17.5 °C 1019.2 hPa Calm   1.6 km/h 98 % 0 mm
08:08 18.1 °C 17.8 °C 1019.2 hPa Calm   1.6 km/h 98 % 0 mm
08:13 18.3 °C 18 °C 1019.5 hPa North 1.6 km/h 1.6 km/h 98 % 0 mm
08:18 18.6 °C 18.4 °C 1019.5 hPa Calm   1.6 km/h 99 % 0 mm
08:23 18.8 °C 18.6 °C 1019.5 hPa Calm   1.6 km/h 99 % 0 mm
08:28 18.9 °C 18.6 °C 1019.5 hPa Calm   1.6 km/h 98 % 0 mm
08:33 18.9 °C 18.6 °C 1019.9 hPa Calm   1.6 km/h 98 % 0 mm
08:38 19 °C 18.7 °C 1019.9 hPa Calm   1.6 km/h 98 % 0 mm
08:43 19.1 °C 18.8 °C 1019.9 hPa Calm   1.6 km/h 98 % 0 mm
08:48 19.3 °C 19 °C 1019.9 hPa Calm   1.6 km/h 98 % 0 mm
08:53 19.9 °C 19.7 °C 1020.2 hPa Calm   1.6 km/h 99 % 0 mm
08:58 20.1 °C 19.8 °C 1020.2 hPa Calm   1.6 km/h 98 % 0 mm
09:03 20.1 °C 19.8 °C 1020.2 hPa Calm   1.6 km/h 98 % 0 mm
09:08 20 °C 19.7 °C 1020.2 hPa Calm   1.6 km/h 98 % 0 mm
09:14 19.9 °C 19.4 °C 1020.5 hPa Calm   1.6 km/h 97 % 0 mm
09:18 20.2 °C 19.9 °C 1020.5 hPa Calm   1.6 km/h 98 % 0 mm
09:23 20.9 °C 20.7 °C 1020.5 hPa Calm   1.6 km/h 99 % 0 mm
09:29 21.3 °C 20.8 °C 1020.5 hPa NW 3.2 km/h 3.2 km/h 97 % 0 mm
09:34 21.6 °C 21.1 °C 1020.5 hPa Calm   3.2 km/h 97 % 0 mm
09:39 21.7 °C 21 °C 1020.9 hPa West 1.6 km/h 3.2 km/h 96 % 0 mm
09:44 21.8 °C 21 °C 1020.9 hPa WSW 1.6 km/h 3.2 km/h 95 % 0 mm
09:49 21.9 °C 20.9 °C 1020.9 hPa Calm   3.2 km/h 94 % 0 mm
09:54 22.3 °C 21.3 °C 1020.9 hPa Calm   3.2 km/h 94 % 0 mm
09:59 22.5 °C 21.1 °C 1021.2 hPa SSW 4.8 km/h 4.8 km/h 92 % 0 mm
10:04 22.3 °C 20.6 °C 1021.2 hPa SW 3.2 km/h 6.4 km/h 90 % 0 mm
10:09 22.3 °C 20.6 °C 1021.2 hPa SSE 4.8 km/h 6.4 km/h 90 % 0 mm
10:14 22.4 °C 20.3 °C 1021.2 hPa South 6.4 km/h 8 km/h 88 % 0 mm
10:19 22.6 °C 20.5 °C 1020.9 hPa SSE 6.4 km/h 9.7 km/h 88 % 0 mm
10:24 22.9 °C 20.2 °C 1020.9 hPa SSE 8 km/h 9.7 km/h 85 % 0 mm
10:29 23.2 °C 20.5 °C 1020.9 hPa SSE 3.2 km/h 11.3 km/h 85 % 0 mm
10:39 23.8 °C 20.1 °C 1020.9 hPa SSW 8 km/h 17.7 km/h 80 % 0 mm
10:44 23.9 °C 19.6 °C 1020.9 hPa SSW 4.8 km/h 17.7 km/h 77 % 0 mm
10:49 24.3 °C 20.2 °C 1020.9 hPa SW 1.6 km/h 17.7 km/h 78 % 0 mm
10:54 24.8 °C 20.1 °C 1020.9 hPa SSE 3.2 km/h 16.1 km/h 75 % 0 mm
10:59 24.9 °C 19.7 °C 1020.9 hPa SSW 6.4 km/h 14.5 km/h 73 % 0 mm
11:04 24.9 °C 19.7 °C 1020.9 hPa SSW 6.4 km/h 11.3 km/h 73 % 0 mm
11:09 24.9 °C 19.3 °C 1020.9 hPa South 8 km/h 12.9 km/h 71 % 0 mm
11:14 24.8 °C 18.5 °C 1021.2 hPa SE 4.8 km/h 16.1 km/h 68 % 0 mm
11:19 24.9 °C 19.7 °C 1021.2 hPa SSW 6.4 km/h 16.1 km/h 73 % 0 mm
11:20 25 °C 19.6 °C 1021.2 hPa SW 3.2 km/h 16.1 km/h 72 % 0 mm
11:25 24.9 °C 19 °C 1021.2 hPa SW 4.8 km/h 11.3 km/h 70 % 0 mm
11:30 24.8 °C 19.6 °C 1021.2 hPa West 8 km/h 11.3 km/h 73 % 0 mm
11:35 24.8 °C 19.2 °C 1021.2 hPa SSW 3.2 km/h 11.3 km/h 71 % 0 mm
11:40 25 °C 19.6 °C 1021.2 hPa SE 8 km/h 11.3 km/h 72 % 0 mm
11:45 25.3 °C 19.4 °C 1021.2 hPa SSW 4.8 km/h 16.1 km/h 70 % 0 mm
11:46 25.4 °C 19.5 °C 1021.2 hPa SE 3.2 km/h 16.1 km/h 70 % 0 mm
11:51 25.7 °C 19.6 °C 1021.2 hPa SE 6.4 km/h 16.1 km/h 69 % 0 mm
11:56 25.8 °C 19 °C 1021.2 hPa Calm   16.1 km/h 66 % 0 mm
12:01 25.6 °C 19 °C 1021.2 hPa SW 3.2 km/h 14.5 km/h 67 % 0 mm
12:06 25.5 °C 19.2 °C 1020.9 hPa SSE 6.4 km/h 12.9 km/h 68 % 0 mm
12:11 25.9 °C 19.1 °C 1020.9 hPa WSW 11.3 km/h 12.9 km/h 66 % 0 mm
12:16 26.2 °C 19.3 °C 1020.9 hPa SW 6.4 km/h 12.9 km/h 66 % 0 mm
12:21 26.4 °C 18.5 °C 1020.9 hPa SSE 4.8 km/h 14.5 km/h 62 % 0 mm
12:26 26.6 °C 19.2 °C 1020.5 hPa SW 3.2 km/h 14.5 km/h 64 % 0 mm
12:31 26.9 °C 20 °C 1020.5 hPa SSW 1.6 km/h 16.1 km/h 66 % 0 mm
12:36 26.8 °C 18.4 °C 1020.5 hPa SW 4.8 km/h 16.1 km/h 60 % 0 mm
12:41 26.8 °C 18.6 °C 1020.5 hPa SE 8 km/h 17.7 km/h 61 % 0 mm
12:46 26.8 °C 18.6 °C 1020.5 hPa Calm   17.7 km/h 61 % 0 mm
12:51 27.2 °C 18.8 °C 1020.5 hPa South 11.3 km/h 17.7 km/h 60 % 0 mm
12:56 27.3 °C 18 °C 1020.5 hPa SE 17.7 km/h 17.7 km/h 57 % 0 mm
13:01 27.2 °C 19.3 °C 1020.5 hPa SW 8 km/h 22.5 km/h 62 % 0 mm
13:06 27.3 °C 17.8 °C 1020.5 hPa ESE 8 km/h 22.5 km/h 56 % 0 mm
13:11 27.4 °C 18.4 °C 1020.5 hPa SSE 6.4 km/h 22.5 km/h 58 % 0 mm
13:16 27.2 °C 17.9 °C 1020.2 hPa SE 3.2 km/h 17.7 km/h 57 % 0 mm
13:21 27.2 °C 18.5 °C 1020.2 hPa SSW 4.8 km/h 16.1 km/h 59 % 0 mm
13:26 27.6 °C 18.6 °C 1020.2 hPa ESE 4.8 km/h 14.5 km/h 58 % 0 mm
13:31 27.7 °C 17.8 °C 1020.2 hPa South 12.9 km/h 12.9 km/h 55 % 0 mm
13:36 27.8 °C 17.6 °C 1019.9 hPa Calm   17.7 km/h 54 % 0 mm
13:41 28.1 °C 18.2 °C 1019.9 hPa SSW 4.8 km/h 17.7 km/h 55 % 0 mm
13:46 28.2 °C 18 °C 1019.9 hPa SSE 9.7 km/h 17.7 km/h 54 % 0 mm
13:51 28.1 °C 18.2 °C 1019.9 hPa SW 3.2 km/h 19.3 km/h 55 % 0 mm
13:56 28.4 °C 18.8 °C 1019.5 hPa South 4.8 km/h 19.3 km/h 56 % 0 mm
14:01 28.3 °C 17.8 °C 1019.5 hPa ESE 8 km/h 19.3 km/h 53 % 0 mm
14:06 28 °C 17.2 °C 1019.5 hPa SSW 8 km/h 17.7 km/h 52 % 0 mm
14:11 27.9 °C 16.8 °C 1019.5 hPa SSW 11.3 km/h 17.7 km/h 51 % 0 mm
14:17 28 °C 17.5 °C 1019.2 hPa ESE 8 km/h 17.7 km/h 53 % 0 mm
14:19 28.1 °C 17 °C 1019.2 hPa South 9.7 km/h 17.7 km/h 51 % 0 mm
14:22 28.2 °C 17.1 °C 1019.2 hPa SE 16.1 km/h 16.1 km/h 51 % 0 mm
14:25 28.2 °C 15.5 °C 1019.2 hPa SSE 4.8 km/h 22.5 km/h 46 % 0 mm
14:27 28.2 °C 17.4 °C 1019.2 hPa SSW 11.3 km/h 22.5 km/h 52 % 0 mm
14:29 28.2 °C 16.8 °C 1019.2 hPa SSW 8 km/h 22.5 km/h 50 % 0 mm
14:31 28.3 °C 17.2 °C 1019.2 hPa SSW 9.7 km/h 22.5 km/h 51 % 0 mm
14:36 28.4 °C 17 °C 1018.8 hPa South 6.4 km/h 22.5 km/h 50 % 0 mm
14:37 28.4 °C 17 °C 1018.8 hPa SSW 9.7 km/h 22.5 km/h 50 % 0 mm
14:38 28.4 °C 16.7 °C 1018.8 hPa SSE 8 km/h 22.5 km/h 49 % 0 mm
14:39 28.4 °C 16.7 °C 1018.8 hPa South 9.7 km/h 22.5 km/h 49 % 0 mm
14:44 28.6 °C 17.2 °C 1018.8 hPa SSE 8 km/h 19.3 km/h 50 % 0 mm
14:49 28.7 °C 17.6 °C 1018.8 hPa SSE 9.7 km/h 19.3 km/h 51 % 0 mm
14:54 28.6 °C 17.5 °C 1018.8 hPa SW 8 km/h 20.9 km/h 51 % 0 mm
14:57 28.7 °C 17.9 °C 1018.8 hPa SE 6.4 km/h 20.9 km/h 52 % 0 mm
15:02 28.9 °C 16.5 °C 1018.5 hPa SSE 6.4 km/h 20.9 km/h 47 % 0 mm
15:03 28.8 °C 17.3 °C 1018.8 hPa SSW 3.2 km/h 20.9 km/h 50 % 0 mm
15:07 28.9 °C 17.1 °C 1018.5 hPa SSE 6.4 km/h 17.7 km/h 49 % 0 mm
15:08 29 °C 17.8 °C 1018.5 hPa SW 11.3 km/h 17.7 km/h 51 % 0 mm
15:13 28.9 °C 17.1 °C 1018.5 hPa SSE 11.3 km/h 16.1 km/h 49 % 0 mm
15:18 28.8 °C 17.3 °C 1018.5 hPa WSW 4.8 km/h 17.7 km/h 50 % 0 mm
15:23 29 °C 17.2 °C 1018.5 hPa SW 11.3 km/h 17.7 km/h 49 % 0 mm
15:28 29.1 °C 17.9 °C 1018.2 hPa South 8 km/h 20.9 km/h 51 % 0 mm
15:33 29.1 °C 17.3 °C 1018.2 hPa WSW 8 km/h 20.9 km/h 49 % 0 mm
15:36 29.1 °C 17.9 °C 1018.2 hPa ESE 8 km/h 20.9 km/h 51 % 0 mm
15:41 29 °C 16.9 °C 1018.2 hPa SSE 8 km/h 14.5 km/h 48 % 0 mm
15:46 29.2 °C 16.7 °C 1018.2 hPa South 12.9 km/h 14.5 km/h 47 % 0 mm
15:51 29.3 °C 16.8 °C 1018.2 hPa SE 3.2 km/h 16.1 km/h 47 % 0 mm
15:56 29.6 °C 16.8 °C 1017.8 hPa South 8 km/h 16.1 km/h 46 % 0 mm
16:01 29.7 °C 16.8 °C 1017.8 hPa SW 9.7 km/h 16.1 km/h 46 % 0 mm
16:06 29.6 °C 16.1 °C 1017.8 hPa SSE 3.2 km/h 19.3 km/h 44 % 0 mm
16:08 29.5 °C 16 °C 1017.8 hPa ESE 4.8 km/h 19.3 km/h 44 % 0 mm
16:11 29.3 °C 16.5 °C 1017.8 hPa SSW 4.8 km/h 19.3 km/h 46 % 0 mm
16:17 29.2 °C 16 °C 1017.8 hPa ESE 11.3 km/h 19.3 km/h 45 % 0 mm
16:22 29.3 °C 16.1 °C 1017.8 hPa South 14.5 km/h 20.9 km/h 45 % 0 mm
16:27 29.1 °C 16.3 °C 1017.8 hPa SSW 11.3 km/h 20.9 km/h 46 % 0 mm
16:32 28.8 °C 15.7 °C 1017.8 hPa SE 4.8 km/h 20.9 km/h 45 % 0 mm
16:37 28.9 °C 15.8 °C 1017.8 hPa SSE 8 km/h 19.3 km/h 45 % 0 mm
16:42 29 °C 16.5 °C 1017.8 hPa WSW 11.3 km/h 19.3 km/h 47 % 0 mm
16:47 29 °C 16.5 °C 1017.5 hPa SE 3.2 km/h 19.3 km/h 47 % 0 mm
16:52 29.2 °C 16.7 °C 1017.5 hPa South 6.4 km/h 17.7 km/h 47 % 0 mm
16:57 29.3 °C 16.8 °C 1017.5 hPa SSW 11.3 km/h 17.7 km/h 47 % 0 mm
17:02 29.2 °C 16.4 °C 1017.5 hPa SE 4.8 km/h 17.7 km/h 46 % 0 mm
17:04 29.2 °C 16.4 °C 1017.5 hPa South 4.8 km/h 17.7 km/h 46 % 0 mm
17:09 29.3 °C 16.8 °C 1017.5 hPa SSW 9.7 km/h 17.7 km/h 47 % 0 mm
17:14 29 °C 16.2 °C 1017.5 hPa SSE 3.2 km/h 17.7 km/h 46 % 0 mm
17:19 28.7 °C 16.3 °C 1017.5 hPa South 6.4 km/h 17.7 km/h 47 % 0 mm
17:24 28.7 °C 16.3 °C 1017.5 hPa SW 9.7 km/h 17.7 km/h 47 % 0 mm
17:29 28.8 °C 16.4 °C 1017.5 hPa WSW 4.8 km/h 17.7 km/h 47 % 0 mm
17:35 29.1 °C 16.3 °C 1017.5 hPa South 8 km/h 14.5 km/h 46 % 0 mm
17:39 29 °C 16.2 °C 1017.5 hPa SE 6.4 km/h 14.5 km/h 46 % 0 mm
17:45 28.9 °C 16.8 °C 1017.5 hPa Calm   16.1 km/h 48 % 0 mm
17:50 28.9 °C 15.8 °C 1017.5 hPa SSE 8 km/h 16.1 km/h 45 % 0 mm
17:52 28.9 °C 16.1 °C 1017.5 hPa South 4.8 km/h 19.3 km/h 46 % 0 mm
17:57 28.9 °C 16.1 °C 1017.5 hPa SSW 6.4 km/h 19.3 km/h 46 % 0 mm
18:02 28.7 °C 16.3 °C 1017.5 hPa SSW 4.8 km/h 19.3 km/h 47 % 0 mm
18:07 28.7 °C 15.9 °C 1017.5 hPa SE 12.9 km/h 19.3 km/h 46 % 0 mm
18:12 28.6 °C 15.5 °C 1017.5 hPa SSW 11.3 km/h 19.3 km/h 45 % 0 mm
18:17 28.6 °C 15.5 °C 1017.5 hPa South 8 km/h 17.7 km/h 45 % 0 mm
18:22 28.6 °C 15.8 °C 1017.5 hPa SSW 6.4 km/h 14.5 km/h 46 % 0 mm
18:27 28.4 °C 16 °C 1017.5 hPa SSW 4.8 km/h 14.5 km/h 47 % 0 mm
18:32 28.4 °C 16.3 °C 1017.5 hPa SSW 4.8 km/h 14.5 km/h 48 % 0 mm
18:37 28.4 °C 16.3 °C 1017.8 hPa South 4.8 km/h 12.9 km/h 48 % 0 mm
18:42 28.3 °C 16.6 °C 1017.8 hPa SSW 11.3 km/h 11.3 km/h 49 % 0 mm
18:47 28.2 °C 16.5 °C 1017.8 hPa South 8 km/h 12.9 km/h 49 % 0 mm
18:52 28.1 °C 16.4 °C 1017.8 hPa SE 9.7 km/h 17.7 km/h 49 % 0 mm
18:57 28 °C 16.3 °C 1017.8 hPa SSE 4.8 km/h 17.7 km/h 49 % 0 mm
19:02 27.9 °C 16.2 °C 1017.8 hPa SSW 3.2 km/h 17.7 km/h 49 % 0 mm
19:07 27.7 °C 15.7 °C 1017.8 hPa South 1.6 km/h 11.3 km/h 48 % 0 mm
19:12 27.6 °C 15.9 °C 1017.8 hPa South 4.8 km/h 11.3 km/h 49 % 0 mm
19:18 27.2 °C 15.6 °C 1017.8 hPa South 4.8 km/h 11.3 km/h 49 % 0 mm
19:23 26.9 °C 15.9 °C 1017.8 hPa SSW 3.2 km/h 9.7 km/h 51 % 0 mm
19:28 26.7 °C 15.7 °C 1017.8 hPa South 4.8 km/h 9.7 km/h 51 % 0 mm
19:33 26.5 °C 15.8 °C 1017.8 hPa South 6.4 km/h 9.7 km/h 52 % 0 mm
19:38 26.3 °C 16 °C 1017.8 hPa South 3.2 km/h 6.4 km/h 53 % 0 mm
19:43 26.1 °C 15.8 °C 1017.8 hPa SSE 4.8 km/h 9.7 km/h 53 % 0 mm
19:48 25.9 °C 15.9 °C 1017.8 hPa South 1.6 km/h 9.7 km/h 54 % 0 mm
19:53 25.8 °C 15.8 °C 1017.8 hPa South 1.6 km/h 9.7 km/h 54 % 0 mm
19:58 25.7 °C 16 °C 1017.8 hPa SSE 1.6 km/h 8 km/h 55 % 0 mm
20:03 25.5 °C 16.1 °C 1018.2 hPa SSW 1.6 km/h 6.4 km/h 56 % 0 mm
20:08 25.3 °C 16.4 °C 1018.2 hPa SSE 8 km/h 8 km/h 58 % 0 mm
20:13 25.3 °C 16.7 °C 1018.2 hPa SSW 4.8 km/h 9.7 km/h 59 % 0 mm
20:18 25.3 °C 17.7 °C 1018.2 hPa South 11.3 km/h 11.3 km/h 63 % 0 mm
20:28 25.1 °C 19 °C 1018.5 hPa South 4.8 km/h 17.7 km/h 69 % 0 mm
20:33 24.9 °C 19.3 °C 1018.5 hPa ESE 11.3 km/h 17.7 km/h 71 % 0 mm
20:38 24.7 °C 19.3 °C 1018.5 hPa ESE 11.3 km/h 20.9 km/h 72 % 0 mm
20:43 24.5 °C 19.3 °C 1018.5 hPa South 11.3 km/h 20.9 km/h 73 % 0 mm
20:48 24.3 °C 19.4 °C 1018.5 hPa South 9.7 km/h 20.9 km/h 74 % 0 mm
20:53 24.2 °C 19.5 °C 1018.5 hPa ESE 14.5 km/h 20.9 km/h 75 % 0 mm
20:58 24 °C 19.5 °C 1018.5 hPa SE 8 km/h 20.9 km/h 76 % 0 mm
21:03 23.8 °C 19.3 °C 1018.5 hPa SE 6.4 km/h 20.9 km/h 76 % 0 mm
21:08 23.7 °C 19.4 °C 1018.8 hPa SSE 8 km/h 17.7 km/h 77 % 0 mm
21:13 23.6 °C 19.5 °C 1018.8 hPa South 9.7 km/h 24.1 km/h 78 % 0 mm
21:18 23.4 °C 19.3 °C 1019.2 hPa SE 8 km/h 24.1 km/h 78 % 0 mm
21:23 23.3 °C 19.5 °C 1019.2 hPa SSE 11.3 km/h 24.1 km/h 79 % 0 mm
21:28 23.1 °C 19.3 °C 1019.2 hPa SSE 8 km/h 17.7 km/h 79 % 0 mm
21:33 23 °C 19.4 °C 1019.2 hPa SSE 9.7 km/h 17.7 km/h 80 % 0 mm
21:38 22.9 °C 19.3 °C 1019.5 hPa SSE 6.4 km/h 17.7 km/h 80 % 0 mm
21:40 22.9 °C 19.3 °C 1019.5 hPa SSE 6.4 km/h 17.7 km/h 80 % 0 mm
21:45 22.7 °C 19.3 °C 1019.5 hPa SE 6.4 km/h 17.7 km/h 81 % 0 mm
21:50 22.7 °C 19.5 °C 1019.5 hPa SSE 8 km/h 14.5 km/h 82 % 0 mm
21:55 22.6 °C 19.4 °C 1019.5 hPa SE 6.4 km/h 14.5 km/h 82 % 0 mm
22:00 22.6 °C 19.4 °C 1019.5 hPa SSE 4.8 km/h 19.3 km/h 82 % 0 mm
22:05 22.4 °C 19.4 °C 1019.9 hPa South 4.8 km/h 19.3 km/h 83 % 0 mm
22:10 22.3 °C 19.3 °C 1019.9 hPa SSE 8 km/h 19.3 km/h 83 % 0 mm
22:15 22.3 °C 19.3 °C 1019.9 hPa SSW 6.4 km/h 16.1 km/h 83 % 0 mm
22:20 22.2 °C 19.4 °C 1019.9 hPa SE 3.2 km/h 16.1 km/h 84 % 0 mm
22:25 22.1 °C 19.3 °C 1019.9 hPa South 4.8 km/h 16.1 km/h 84 % 0 mm
22:30 21.9 °C 19.3 °C 1019.9 hPa SSW 8 km/h 11.3 km/h 85 % 0 mm
22:35 21.9 °C 19.3 °C 1019.9 hPa SSE 8 km/h 11.3 km/h 85 % 0 mm
22:40 21.8 °C 19.2 °C 1020.2 hPa South 4.8 km/h 11.3 km/h 85 % 0 mm
22:45 21.8 °C 19.4 °C 1020.2 hPa SSE 1.6 km/h 11.3 km/h 86 % 0 mm
22:50 21.7 °C 19.3 °C 1020.2 hPa South 3.2 km/h 11.3 km/h 86 % 0 mm
22:55 21.6 °C 19.2 °C 1020.2 hPa SSW 6.4 km/h 11.3 km/h 86 % 0 mm
23:00 21.6 °C 19.3 °C 1020.2 hPa South 4.8 km/h 12.9 km/h 87 % 0 mm
23:05 21.5 °C 19.2 °C 1020.5 hPa SE 6.4 km/h 12.9 km/h 87 % 0 mm
23:10 21.5 °C 19.2 °C 1020.5 hPa SSW 4.8 km/h 12.9 km/h 87 % 0 mm
23:15 21.4 °C 19.1 °C 1020.5 hPa SSE 9.7 km/h 9.7 km/h 87 % 0 mm
23:20 21.3 °C 19.2 °C 1020.5 hPa South 3.2 km/h 11.3 km/h 88 % 0 mm
23:25 21.2 °C 19.1 °C 1020.5 hPa SSW 6.4 km/h 11.3 km/h 88 % 0 mm
23:30 21.2 °C 19.1 °C 1020.5 hPa SSW 3.2 km/h 11.3 km/h 88 % 0 mm
23:35 21.1 °C 19.2 °C 1020.5 hPa South 6.4 km/h 9.7 km/h 89 % 0 mm
23:40 21.1 °C 19.2 °C 1020.5 hPa SSE 3.2 km/h 11.3 km/h 89 % 0 mm
23:45 21 °C 19.1 °C 1020.5 hPa SSW 1.6 km/h 11.3 km/h 89 % 0 mm
23:50 20.9 °C 19.2 °C 1020.5 hPa South 1.6 km/h 11.3 km/h 90 % 0 mm
23:55 20.9 °C 19.2 °C 1020.2 hPa SE 3.2 km/h 8 km/h 90 % 0 mm
Spring, Texas: Villages of Bridgestone
Compliments of Weather Underground - 3 mb

Script developed by  Jim McMurry - jmcmurry@mwt.net Adapted for the template by  Wim van der Kuil - Leuven-Template.eu

You find our weather info also at:

UK Metoffice

WeatherCloud

Weather Underground

Mid-South Weather Network

AWEKAS

Citizen Weather Observer Program (CWOP)

HAMweather, WeatherForYou, PWS Weather

Equipment we use:

Weather-station
Davis Vantage Vue

Weather-program
Meteohub

Weather-server
Debian 7.9 x86 (Guest)

Provider
DreamHost

Davis Vantage Vue

Meteohub

Debian 7.9 x86 (Guest)

DreamHost